IZ7XUV Weather Reports


time (UTC)temp
C
wind
direction
speed
KPH
gust
KPH
rain 1hr
cm
rain 24hr
cm
rain mn
cm
humidity
%
barometer
mb
20260503225633 11 222 1.6 4.8 0.00 0.00 0.00 74 1019.4
20260503224603 11 245 1.6 4.8 0.00 0.00 0.00 74 1019.4
20260503223552 12 211 1.6 4.8 0.00 0.00 0.00 73 1019.4
20260503222542 12 240 1.6 3.2 0.00 0.00 0.00 73 1019.5
20260503221532 11 200 1.6 4.8 0.00 0.00 0.00 75 1019.5
20260503220522 11 198 3.2 9.7 0.00 0.00 0.00 76 1019.4
20260503215614 11 219 1.6 4.8 0.00 0.00 0.00 76 1019.2
20260503214603 11 184 3.2 4.8 0.00 0.00 0.00 76 1019.0
20260503213553 12 210 1.6 4.8 0.00 0.00 0.00 76 1019.1
20260503212543 12 230 1.6 3.2 0.00 0.00 0.00 75 1019.1
20260503211533 12 211 3.2 4.8 0.00 0.00 0.00 75 1019.0
20260503210524 12 244 1.6 3.2 0.00 0.00 0.00 73 1019.0
20260503205615 12 249 0.0 1.6 0.00 0.00 0.00 73 1019.0
20260503204604 13 267 0.0 1.6 0.00 0.00 0.00 72 1018.9
20260503203554 13 223 1.6 3.2 0.00 0.00 0.00 71 1018.8
20260503202544 13 253 0.0 3.2 0.00 0.00 0.00 71 1018.9
20260503201534 13 232 1.6 4.8 0.00 0.00 0.00 71 1018.9
20260503200524 13 253 1.6 3.2 0.00 0.00 0.00 71 1018.9
20260503195616 13 217 3.2 4.8 0.00 0.00 0.00 70 1018.7
20260503194606 14 230 0.0 1.6 0.00 0.00 0.00 70 1018.6
20260503193555 14 0.0 0.0 0.00 0.00 0.00 69 1018.5
20260503192606 15 218 1.6 3.2 0.00 0.00 0.00 68 1018.4
20260503191535 16 262 0.0 3.2 0.00 0.00 0.00 64 1018.4
20260503190525 16 0.0 0.0 0.00 0.00 0.00 62 1018.2
20260503185616 16 0.0 1.6 0.00 0.00 0.00 63 1018.2
20260503184606 16 263 0.0 1.6 0.00 0.00 0.00 60 1018.0
20260503183556 17 0.0 0.0 0.00 0.00 0.00 60 1018.0
20260503182546 17 0.0 0.0 0.00 0.00 0.00 57 1018.0
20260503181536 18 0.0 0.0 0.00 0.00 0.00 55 1018.0
20260503180526 19 0.0 0.0 0.00 0.00 0.00 49 1018.0
20260503175516 19 0.0 0.0 0.00 0.00 0.00 47 1017.9
20260503174607 20 0.0 0.0 0.00 0.00 0.00 46 1017.9
20260503173557 20 277 0.0 1.6 0.00 0.00 0.00 43 1018.0
20260503172547 21 304 3.2 4.8 0.00 0.00 0.00 40 1017.9
20260503171537 21 307 1.6 4.8 0.00 0.00 0.00 40 1017.9
20260503170527 21 301 4.8 6.4 0.00 0.00 0.00 40 1017.9
20260503150528 20 82 4.8 11.3 0.00 0.00 0.00 60 1018.4
20260503130531 20 346 4.8 12.9 0.00 0.00 0.00 55 1019.2
20260503110533 21 313 9.7 17.7 0.00 0.00 0.00 49 1019.4
20260503081546 19 293 11.3 20.9 0.00 0.00 0.00 47 1019.9
20260503080536 19 310 11.3 20.9 0.00 0.00 0.00 46 1019.8
20260503072557 18 305 11.3 22.5 0.00 0.00 0.00 45 1020.0
20260503071547 18 323 9.7 20.9 0.00 0.00 0.00 46 1020.0
20260503070537 18 312 12.9 20.9 0.00 0.00 0.00 45 1019.9
20260503054518 16 288 11.3 20.9 0.00 0.00 0.00 43 1019.8
20260503053609 16 281 11.3 17.7 0.00 0.00 0.00 43 1019.6
20260503052559 16 290 9.7 17.7 0.00 0.00 0.00 44 1019.6
20260503051549 16 280 11.3 17.7 0.00 0.00 0.00 44 1019.5
20260503050539 16 289 9.7 20.9 0.00 0.00 0.00 44 1019.5
20260503045530 15 279 11.3 17.7 0.00 0.00 0.00 45 1019.5
20260503044520 15 282 9.7 16.1 0.00 0.00 0.00 46 1019.5
20260503043631 15 279 8.0 16.1 0.00 0.00 0.00 47 1019.5
20260503042600 14 279 8.0 16.1 0.00 0.00 0.00 47 1019.6
20260503041550 14 293 3.2 9.7 0.00 0.00 0.00 48 1019.6
20260503040540 14 286 8.0 12.9 0.00 0.00 0.00 48 1019.5
20260503035530 14 285 6.4 11.3 0.00 0.00 0.00 47 1019.4
20260503034520 14 294 8.0 14.5 0.00 0.00 0.00 47 1019.3
20260503033611 14 288 6.4 11.3 0.00 0.00 0.00 47 1019.5
20260503032601 14 299 9.7 17.7 0.00 0.00 0.00 46 1019.4
20260503031551 14 285 6.4 12.9 0.00 0.00 0.00 47 1019.5
20260503030540 15 286 9.7 17.7 0.00 0.00 0.00 46 1019.5
20260503025531 15 284 9.7 22.5 0.00 0.00 0.00 46 1019.5
20260503024521 15 274 8.0 16.1 0.00 0.00 0.00 46 1019.6
20260503023632 14 287 6.4 14.5 0.00 0.00 0.00 47 1019.7
20260503022602 14 275 8.0 14.5 0.00 0.00 0.00 47 1019.6
20260503021552 14 281 4.8 11.3 0.00 0.00 0.00 47 1019.7
20260503020542 14 278 6.4 11.3 0.00 0.00 0.00 48 1019.6
20260503015532 14 279 6.4 11.3 0.00 0.00 0.00 47 1019.5
20260503014522 14 270 6.4 14.5 0.00 0.00 0.00 47 1019.6
20260503013613 14 282 8.0 14.5 0.00 0.00 0.00 48 1019.7
20260503012603 14 278 6.4 14.5 0.00 0.00 0.00 48 1019.9
20260503011553 14 271 8.0 16.1 0.00 0.00 0.00 48 1019.9
20260503010543 14 276 8.0 12.9 0.00 0.00 0.00 49 1020.1
20260503005534 13 275 8.0 16.1 0.00 0.00 0.00 50 1020.3
20260503004523 13 273 8.0 11.3 0.00 0.00 0.00 50 1020.2
20260503003614 14 280 6.4 11.3 0.00 0.00 0.00 50 1020.4
20260503002604 13 276 6.4 12.9 0.00 0.00 0.00 50 1020.4
20260503001554 13 266 6.4 11.3 0.00 0.00 0.00 50 1020.5
20260503000544 13 270 4.8 11.3 0.00 0.00 0.00 51 1020.6
20260502235534 13 272 4.8 11.3 0.00 0.00 0.00 51 1020.8
20260502234524 13 283 4.8 9.7 0.00 0.00 0.00 52 1020.8
20260502233615 13 272 4.8 9.7 0.00 0.00 0.00 53 1021.0
20260502232605 13 273 4.8 6.4 0.00 0.00 0.00 53 1021.0
20260502231555 13 276 4.8 11.3 0.00 0.00 0.00 53 1021.2
20260502230545 13 284 4.8 9.7 0.00 0.00 0.00 53 1021.3